Weather History for Huntsville, AL

Change the Weather History Date:

Friday, June 28, 2013

  Actual Average Record
Temperature  
Mean Temperature 82 °F 80 °F  
Max Temperature 90 °F 90 °F 107 °F (1931)
Min Temperature 73 °F 70 °F 54 °F (1968)
Degree Days  
Heating Degree Days 0 0  
Month to date heating degree days 0 0  
Since 1 June heating degree days 0 0  
Since 1 July heating degree days 3042 3001  
Cooling Degree Days 17 15  
Month to date cooling degree days 397 351  
Year to date cooling degree days 630 614  
Since 1 June cooling degree days 397 351  
Growing Degree Days 32 (Base 50)    
Moisture  
Dew Point 70 °F    
Average Humidity 70    
Maximum Humidity 94    
Minimum Humidity 46    
Precipitation  
Precipitation 0.00 in 0.16 in 1.62 in (1999)
Month to date precipitation 2.21 4.00  
Year to date precipitation 31.33 28.37  
Snow  
Snow 0.00 in - - ()
Month to date snowfall 0.0  
Since 1 June snowfall 0.0  
Since 1 July snowfall 0.7  
Snow Depth 0.00 in    
Sea Level Pressure  
Sea Level Pressure 29.78 in    
Wind  
Wind Speed 7 mph (WSW)    
Max Wind Speed 17 mph    
Max Gust Speed 24 mph    
Visibility 9 miles    
Events      
T = Trace of Precipitation, MM = Missing Value Source: NWS Daily Summary

Daily Weather History Graph

Daily Weather History Graph

Search for Another Location

Airport:

Trip Planner

Search our weather history database for the weather conditions in past years. The results will help you decide how hot, cold, wet, or windy it might be!

Date:

Astronomy

Jun. 28, 2013 Rise Set
Actual Time 5:36 AM CDT 8:04 PM CDT
Civil Twilight 5:07 AM CDT 8:33 PM CDT
Nautical Twilight 4:30 AM CDT 9:09 PM CDT
Astronomical Twilight 3:50 AM CDT 9:49 PM CDT
Moon 11:50 PM CDT (6/28) 11:28 AM CDT (6/28)
Length of Visible Light 15h 26m
Length of Day
14h 27m
Waning Gibbous, 66% of the Moon is Illuminated
Jun 28
Waning Gibbous
Jun 29
Last Quarter
Jul 8
New
Jul 15
First Quarter
Jul 22
Full

Hourly Weather History & Observations

Time (CDT) Temp. Heat Index Dew Point Humidity Pressure Visibility Wind Dir Wind Speed Gust Speed Precip Events Conditions
12:53 AM 73.9 °F - 71.1 °F 91% 29.84 in 10.0 mi WNW 3.5 mph - N/A   Clear
1:53 AM 73.9 °F - 71.1 °F 91% 29.83 in 10.0 mi Calm Calm - N/A   Clear
2:53 AM 73.0 °F - 71.1 °F 93% 29.83 in 7.0 mi NW 3.5 mph - N/A   Clear
3:53 AM 73.9 °F - 71.1 °F 91% 29.82 in 7.0 mi Calm Calm - N/A   Clear
4:53 AM 73.0 °F - 71.1 °F 93% 29.82 in 7.0 mi ESE 3.5 mph - N/A   Clear
5:53 AM 73.0 °F - 72.0 °F 96% 29.83 in 7.0 mi Calm Calm - N/A   Mostly Cloudy
6:53 AM 75.9 °F - 73.0 °F 91% 29.83 in 7.0 mi South 3.5 mph - N/A   Mostly Cloudy
7:53 AM 79.0 °F - 73.0 °F 82% 29.83 in 10.0 mi SSW 3.5 mph - N/A   Mostly Cloudy
8:53 AM 82.9 °F 88.0 °F 72.0 °F 69% 29.83 in 10.0 mi WSW 9.2 mph - N/A   Overcast
9:53 AM 84.9 °F 89.4 °F 70.0 °F 61% 29.83 in 10.0 mi WNW 11.5 mph 19.6 mph N/A   Overcast
10:53 AM 84.0 °F 86.5 °F 66.9 °F 56% 29.83 in 10.0 mi WNW 13.8 mph 19.6 mph N/A   Overcast
11:53 AM 84.0 °F 86.5 °F 66.9 °F 56% 29.80 in 10.0 mi West 10.4 mph - N/A   Overcast
12:53 PM 86.0 °F 88.2 °F 66.0 °F 51% 29.77 in 10.0 mi WSW 12.7 mph 17.3 mph N/A   Mostly Cloudy
1:53 PM 88.0 °F 89.6 °F 64.9 °F 46% 29.77 in 10.0 mi WSW 12.7 mph 18.4 mph N/A   Mostly Cloudy
2:53 PM 89.1 °F 91.3 °F 66.0 °F 46% 29.74 in 10.0 mi WNW 13.8 mph 20.7 mph N/A   Mostly Cloudy
3:53 PM 89.1 °F 92.1 °F 66.9 °F 48% 29.73 in 10.0 mi West 8.1 mph - N/A   Mostly Cloudy
4:53 PM 87.1 °F 90.6 °F 68.0 °F 53% 29.72 in 10.0 mi West 9.2 mph - N/A   Mostly Cloudy
5:53 PM 86.0 °F 89.4 °F 68.0 °F 55% 29.71 in 10.0 mi West 9.2 mph - N/A   Mostly Cloudy
6:53 PM 84.9 °F 89.4 °F 70.0 °F 61% 29.69 in 10.0 mi WNW 6.9 mph - N/A   Scattered Clouds
7:53 PM 82.0 °F 86.3 °F 71.1 °F 69% 29.71 in 10.0 mi WSW 4.6 mph - N/A   Scattered Clouds
8:53 PM 79.0 °F - 71.1 °F 77% 29.72 in 10.0 mi Calm Calm - N/A   Scattered Clouds
9:53 PM 78.1 °F - 72.0 °F 81% 29.74 in 10.0 mi SSW 3.5 mph - N/A   Mostly Cloudy
10:53 PM 75.9 °F - 72.0 °F 87% 29.73 in 10.0 mi SSW 4.6 mph - N/A   Mostly Cloudy
11:53 PM 75.0 °F - 72.0 °F 90% 29.71 in 10.0 mi WSW 5.8 mph - N/A   Scattered Clouds